Location: Laverne
(36.7100°N, 99.8930°W)
Time: 09:01:25
(UTC-06:00)

USA 116 - Pass Details

Date: 19 October 2017
Orbit: 405 x 834 km, 97.9° (Epoch: 18 November)

Event Time Altitude Azimuth Distance (km) Brightness Sun altitude
Rises 07:08:13 0° 193° (SSW) 2,425 6.9 -9.3°
Reaches altitude 10° 07:10:22 10° 206° (SSW) 1,608 5.9 -8.9°
Maximum altitude 07:13:18 26° 265° (W) 1,008 4.5 -8.3°
Drops below altitude 10° 07:16:31 10° 323° (NW) 1,785 5.9 -7.6°
Sets 07:19:02 0° 336° (NNW) 2,762 7.0 -7.1°
